Theta_e
298 287 287 287 288 290 290 291 292 293 290 289 289 288 287 287 288 292 292 293 293 291 288 291 290 290 292 293 294 295 296 293 293 295 296 296 297 297 297 298 299 299 300 302 302 303 304 306 307 308 309 310 311 312 313 313 314 314 314 313 312 313 313 313 313 312 313 312 310 309 313 315 314 315 316 317 317 318 319 318 317 321 323 322 322 322
293 288 288 290 293 292 292 292 291 290 289 289 287 288 286 289 288 292 292 293 292 290 285 286 287 289 290 292 293 293 292 293 294 294 294 296 297 298 298 298 299 300 299 301 300 301 302 303 305 305 307 307 309 310 311 312 313 314 313 312 313 312 312 314 314 314 313 313 313 313 314 315 312 311 312 314 313 315 315 316 316 315 320 322 319 317
287 287 289 293 293 292 291 291 290 291 290 288 286 285 286 286 288 292 292 292 293 290 287 285 288 291 292 292 293 292 294 297 296 296 297 296 296 296 296 297 299 298 299 298 299 301 302 303 304 305 306 308 311 310 311 311 311 310 310 311 311 311 312 313 314 313 313 313 311 313 309 314 308 308 307 307 304 307 311 311 313 314 315 319 319 318
286 286 292 294 292 292 291 289 290 289 288 287 286 284 284 285 289 285 288 290 292 291 287 286 289 292 295 294 294 296 295 296 296 295 296 295 295 296 297 298 299 298 298 298 300 302 302 302 303 303 304 306 307 307 307 309 310 311 310 310 310 310 311 312 311 311 311 309 306 306 307 308 308 306 306 304 302 304 306 308 309 312 314 315 318 317
286 290 293 293 293 292 291 290 288 286 288 287 287 283 285 289 290 288 290 290 290 289 291 289 288 288 288 289 289 291 292 295 296 295 294 295 296 298 298 297 298 298 297 298 298 301 301 301 303 304 304 304 305 307 308 308 310 312 310 310 310 310 310 310 309 309 308 307 304 302 302 302 302 303 304 303 301 304 305 307 306 310 311 312 313 314
289 292 295 293 292 291 290 289 288 287 286 285 287 290 288 289 291 292 291 288 282 281 286 289 279 279 283 286 287 290 288 291 291 294 294 295 296 295 296 298 298 298 297 299 299 301 302 303 302 301 301 303 304 305 307 308 309 310 309 309 309 309 310 309 308 309 309 309 308 303 304 303 302 302 303 306 308 304 305 307 305 306 308 310 310 311
289 294 294 293 291 290 289 288 289 288 283 284 285 293 292 290 289 288 287 284 278 279 287 289 281 279 283 289 291 290 290 291 292 290 294 295 296 295 297 299 297 299 300 298 298 299 300 300 301 301 301 303 303 304 304 305 307 308 308 309 309 309 309 308 308 308 308 307 307 305 306 305 305 305 304 305 307 308 307 305 304 305 304 307 309 309
291 293 292 292 290 289 288 288 291 290 285 282 288 292 291 290 289 289 286 284 280 282 286 289 285 278 282 288 289 290 289 289 289 292 293 293 294 296 297 296 297 299 298 298 299 299 300 302 302 302 302 302 304 304 303 305 306 306 307 307 308 308 308 307 308 308 308 308 306 305 304 303 303 303 302 303 305 307 305 304 303 303 302 304 306 307
293 290 291 291 289 287 288 288 292 290 286 286 292 291 290 291 289 287 285 283 284 282 281 279 287 282 278 285 287 288 288 287 289 291 292 293 294 293 293 296 297 297 298 299 300 299 299 300 301 301 301 302 302 302 304 305 306 306 306 306 307 307 307 306 307 307 307 307 306 306 305 303 302 302 301 300 301 304 304 304 302 301 301 301 303 305
293 292 293 293 290 287 289 290 292 292 289 292 292 292 292 290 289 286 282 286 281 279 278 282 285 278 281 283 287 286 286 287 288 290 291 292 293 293 293 295 298 299 298 299 299 298 298 300 300 301 301 301 302 303 304 304 304 305 305 305 306 306 306 306 306 306 306 306 305 305 305 304 302 301 300 300 299 300 303 304 301 301 299 299 300 302
294 295 296 294 290 290 290 292 291 293 292 293 291 290 288 286 283 281 281 280 279 275 278 283 286 282 278 281 284 286 286 287 289 288 287 294 297 297 297 297 299 299 298 297 298 298 298 297 298 298 300 301 300 300 302 303 304 304 304 305 305 305 305 305 305 305 305 305 305 306 305 304 303 302 300 299 299 299 300 302 301 300 299 298 298 299
293 293 293 293 295 293 291 291 291 292 292 292 287 282 281 280 279 278 278 277 275 273 277 283 286 283 276 276 284 287 288 288 289 292 290 295 298 300 298 298 298 298 298 297 296 297 297 298 297 297 298 298 299 299 301 302 303 303 304 304 304 303 303 304 304 304 304 305 304 305 305 304 304 304 302 301 300 300 300 302 301 299 298 297 297 297
287 289 291 294 295 294 289 289 289 287 289 289 286 284 278 275 276 274 274 275 273 275 280 280 282 282 282 284 289 289 288 290 290 294 295 296 299 299 299 299 298 296 296 296 295 295 295 295 296 296 296 296 298 301 301 303 303 303 303 303 303 302 302 303 303 303 303 303 304 304 304 304 305 305 304 303 303 302 301 302 300 298 297 297 296 296
283 284 291 291 292 294 292 288 284 285 287 286 286 280 277 273 272 268 269 271 272 276 280 282 284 282 284 286 290 293 295 291 293 293 293 291 297 298 299 298 297 295 296 296 295 294 295 296 297 296 295 297 298 299 302 302 302 302 303 302 303 303 301 302 302 302 302 302 303 303 304 304 304 305 305 305 305 304 303 303 301 298 298 297 297 297
278 279 286 288 286 292 293 291 290 287 288 289 286 286 281 275 272 269 270 273 274 274 278 280 280 278 277 284 288 290 291 290 293 295 292 292 292 293 292 294 295 295 294 294 294 297 297 297 296 296 296 296 298 299 301 301 301 301 302 301 301 301 300 301 301 301 301 302 301 302 303 304 304 305 305 305 306 305 303 303 302 300 299 298 298 298
284 281 283 294 291 294 293 293 291 288 287 286 287 285 279 281 276 274 271 272 271 275 275 276 279 279 283 287 290 291 290 293 293 292 291 293 292 292 294 295 294 294 295 294 295 297 298 297 294 295 295 297 297 298 300 300 301 301 302 301 302 302 301 300 300 301 301 301 301 301 302 303 303 304 305 305 304 304 304 303 303 301 300 300 299 299
283 281 288 293 291 294 293 292 292 290 281 283 287 283 283 283 284 278 275 279 275 272 276 274 280 283 285 287 291 294 294 291 289 290 290 291 293 293 294 293 293 293 293 293 297 298 298 296 295 296 296 297 297 298 300 301 301 302 302 301 301 301 300 300 300 300 300 300 300 300 301 302 302 303 304 305 304 303 303 303 303 302 300 300 300 298
283 279 286 288 288 291 290 292 291 290 288 286 282 285 289 288 286 281 274 272 273 273 275 276 278 281 277 280 284 286 286 290 289 289 288 290 291 291 294 294 295 294 293 294 296 297 297 296 296 297 297 297 298 298 299 300 301 302 303 302 301 300 300 300 299 299 299 299 299 300 300 301 302 303 303 304 304 302 302 301 301 301 299 299 299 298
287 280 283 287 287 290 291 293 291 291 291 286 283 289 288 280 279 281 275 272 270 268 271 274 277 280 282 284 286 286 286 289 290 287 288 289 290 291 292 293 292 292 294 297 295 296 297 297 297 297 297 296 296 297 299 300 301 301 301 301 302 301 301 301 300 299 299 299 300 300 300 301 302 303 303 303 303 301 301 300 300 300 300 299 298 296
287 281 280 286 288 289 288 288 284 285 290 292 291 290 287 282 277 278 280 274 275 270 270 274 277 280 285 284 285 287 285 289 291 290 288 290 291 291 291 291 293 294 295 296 296 295 296 296 296 296 296 296 296 296 297 298 300 300 301 300 300 299 299 299 299 298 298 298 299 299 298 299 301 302 303 302 302 301 301 300 300 300 299 299 297 296
285 283 276 283 285 287 284 285 283 288 286 286 286 283 286 284 285 280 281 279 276 267 268 270 274 279 285 287 287 286 288 290 289 289 289 289 290 290 291 292 293 295 296 296 295 296 295 294 293 293 293 294 292 294 294 297 299 300 300 300 300 300 299 299 299 299 299 298 297 297 297 298 299 300 301 301 301 300 300 299 298 299 299 297 296 295
284 283 279 281 283 282 283 288 290 291 292 290 289 287 288 284 280 276 277 281 275 277 272 269 276 282 289 290 291 289 289 289 289 291 292 293 293 294 294 294 294 297 297 296 296 295 296 293 292 291 291 290 291 292 293 296 295 296 298 300 299 299 299 299 299 299 298 297 297 296 296 296 296 298 298 299 300 299 298 297 297 297 296 296 295 294
289 282 280 278 283 287 288 287 290 291 291 290 289 287 290 287 285 277 275 274 278 278 275 275 274 283 289 290 288 290 289 290 290 292 294 293 294 294 295 299 295 294 296 296 297 297 295 293 291 291 292 291 292 293 292 292 296 297 296 296 297 298 298 299 299 299 298 297 296 295 294 294 293 294 293 294 296 297 297 297 297 296 295 294 293 292
294 281 280 280 283 286 289 289 288 290 292 289 288 286 286 285 284 284 280 276 280 277 279 276 276 284 290 289 292 292 291 292 291 291 293 293 294 294 293 295 296 297 296 294 294 295 295 292 289 289 290 290 290 291 293 294 295 296 296 297 297 297 297 297 297 297 296 296 295 293 291 292 292 291 292 293 294 295 295 296 296 295 295 294 292 292
286 282 283 276 274 277 281 284 285 285 287 283 283 286 287 288 286 282 281 279 280 279 282 279 276 283 289 286 286 287 290 291 292 291 292 293 293 293 294 295 294 294 294 293 295 296 293 290 292 294 292 291 291 292 293 294 295 296 296 296 297 298 296 297 296 295 295 293 292 290 291 291 291 291 292 293 293 293 293 294 294 293 294 293 291 291
289 283 284 277 276 274 272 276 275 279 285 284 282 285 289 288 286 284 282 279 280 281 281 278 281 287 290 289 290 288 287 290 290 290 290 293 294 295 294 294 294 293 295 294 295 291 293 295 293 291 290 291 292 293 293 293 294 295 296 296 296 297 296 296 294 294 294 292 292 292 291 291 291 291 292 292 292 292 292 292 293 293 293 293 291 290
285 285 286 285 283 281 282 279 283 286 282 283 283 286 286 288 288 288 284 282 281 284 282 283 285 287 289 289 289 288 287 288 289 292 293 294 293 291 291 292 293 294 294 295 296 295 292 291 293 293 292 292 292 292 293 293 293 294 295 295 295 296 296 295 294 294 293 292 292 292 292 291 292 292 292 292 292 291 291 290 291 291 292 291 291 290
287 286 287 286 285 286 283 286 287 289 286 287 286 285 287 288 287 286 284 283 288 281 280 286 287 284 287 290 289 288 290 288 290 290 291 290 291 292 295 295 294 292 294 295 295 295 296 296 294 293 294 292 293 292 292 293 293 294 294 295 295 295 295 296 293 293 293 292 292 293 293 293 292 292 292 292 291 291 290 290 289 289 290 289 290 290
286 285 286 287 285 286 287 287 289 288 287 287 287 285 284 286 285 285 286 288 287 283 282 287 285 285 288 291 290 289 291 292 292 292 293 293 291 292 293 293 294 294 295 295 296 296 295 296 297 296 294 294 292 291 291 291 292 291 292 293 294 292 294 294 293 293 293 292 293 294 295 293 292 292 291 290 290 290 290 289 288 288 288 288 289 290
289 286 285 287 285 286 286 286 287 286 286 287 287 287 287 286 286 287 288 290 289 285 287 288 286 286 289 291 291 291 292 294 294 294 294 294 296 295 292 292 293 294 294 296 297 297 297 297 296 296 296 295 293 293 292 292 292 292 293 293 293 292 293 292 293 294 293 293 294 295 294 292 291 291 290 290 290 290 290 289 288 288 287 288 288 289
290 285 289 285 285 286 287 286 286 287 286 284 287 289 290 289 288 288 288 289 289 289 290 289 288 288 293 294 294 295 295 294 294 293 295 297 296 295 294 292 293 294 296 296 296 296 297 297 297 296 295 295 296 296 296 295 294 293 292 293 293 293 293 292 292 293 294 294 295 295 291 290 291 290 290 290 290 289 289 288 288 287 287 287 287 288
290 285 286 286 284 285 287 286 286 286 286 286 287 288 289 289 286 288 286 289 288 287 288 287 286 287 293 293 295 296 294 293 295 296 296 297 297 295 293 294 295 295 296 296 296 295 295 296 297 297 297 297 297 296 294 294 294 291 292 293 293 293 291 290 292 293 294 295 295 293 291 291 290 289 289 289 289 289 288 287 287 287 287 287 287 287
288 286 285 284 283 284 287 285 286 286 285 284 285 288 290 290 290 292 292 292 291 292 287 285 287 293 295 294 291 293 295 294 294 296 296 297 295 293 292 293 294 295 296 297 296 295 295 296 296 296 297 297 297 297 296 295 292 293 294 293 294 291 290 291 292 293 293 294 293 293 292 291 290 289 289 289 289 288 288 287 287 286 286 286 287 286
287 287 286 287 283 284 285 283 285 284 278 280 292 294 293 290 290 288 289 291 293 293 291 294 294 295 295 295 294 294 295 296 297 298 298 297 294 292 292 292 294 294 295 295 295 295 296 296 296 295 295 295 295 294 295 292 293 295 294 293 290 290 291 291 291 292 292 293 293 293 292 290 289 289 289 289 288 287 287 287 286 286 286 286 286 286
286 287 285 287 283 283 284 285 282 277 279 290 293 295 295 294 293 291 292 293 294 294 295 294 295 295 296 297 297 297 297 297 297 296 297 295 293 294 292 293 294 295 295 294 295 295 295 296 295 295 295 295 295 294 293 293 290 291 291 290 289 289 290 290 291 291 291 292 292 291 290 290 290 290 289 288 287 287 287 287 287 286 285 285 285 285
286 286 285 285 285 286 283 283 276 278 286 287 289 292 292 291 292 290 288 291 293 294 294 293 295 296 297 297 298 298 297 297 293 291 290 291 293 292 291 292 293 293 293 294 293 294 295 295 295 294 294 294 292 293 291 292 291 291 292 288 289 289 289 289 289 290 290 291 291 291 290 290 290 290 289 288 287 287 287 287 286 285 284 284 284 284
289 286 286 283 287 280 282 282 281 287 286 288 288 288 286 285 286 287 285 288 293 294 294 293 295 296 296 296 296 296 294 292 291 293 290 291 292 291 292 291 292 293 292 293 292 293 294 292 292 292 290 290 291 291 292 291 290 291 290 288 288 287 287 287 288 290 290 290 290 290 290 290 289 289 288 287 286 286 286 286 285 285 284 283 283 283
292 286 287 284 282 286 282 280 279 279 277 284 290 292 291 291 292 292 289 287 293 291 292 293 294 295 294 291 289 288 288 289 289 290 290 292 292 290 290 290 290 291 291 292 292 291 291 291 291 290 288 289 290 290 289 289 289 290 290 290 288 286 287 286 289 290 290 290 290 290 289 289 289 288 288 287 286 286 286 286 285 284 283 284 283 283
291 291 287 286 283 283 281 278 279 277 280 286 287 287 289 290 293 289 287 284 287 287 290 290 289 288 287 286 288 286 289 286 288 290 289 291 291 290 288 289 289 290 290 289 290 291 291 291 289 289 289 290 290 291 288 288 288 288 289 289 288 286 287 288 289 289 289 290 290 289 288 288 288 288 287 287 287 286 286 285 284 284 283 283 283 283
287 287 286 283 282 284 282 280 277 282 281 285 285 286 286 286 291 289 280 280 287 287 287 288 287 286 286 285 287 286 284 283 284 289 290 289 289 289 287 289 290 290 291 291 291 290 289 288 288 290 291 290 291 289 287 286 287 288 288 289 286 287 288 289 290 289 288 288 288 287 287 287 287 287 287 287 287 286 286 284 283 282 282 282 282 282
285 285 285 281 283 283 283 281 282 283 287 289 288 285 287 289 289 282 278 285 286 286 287 286 286 287 286 287 286 285 286 289 291 291 290 287 287 289 288 287 287 287 289 290 291 289 289 290 288 289 289 289 289 288 286 286 286 288 288 287 286 287 289 289 288 288 288 287 287 287 287 287 287 287 287 287 286 285 284 283 283 281 281 281 280 280
284 285 284 285 282 281 282 280 280 284 285 285 285 286 286 286 281 280 286 286 285 286 287 286 288 287 287 288 287 287 289 288 288 287 287 286 287 287 287 288 288 288 288 288 289 289 289 289 288 288 289 289 288 286 285 285 286 287 287 286 287 288 288 287 287 287 286 286 286 286 286 286 286 286 287 285 284 283 282 281 282 281 281 280 280 280
282 282 279 282 284 285 283 280 279 275 285 288 287 287 286 284 283 286 284 285 285 285 286 287 286 288 287 288 287 287 287 288 288 288 288 287 286 287 287 288 288 288 289 289 290 291 289 289 289 289 289 290 289 287 285 283 285 287 286 286 288 287 286 286 286 285 285 285 285 285 285 285 285 285 285 284 283 283 281 280 280 279 280 279 279 279
283 277 276 281 285 277 280 278 279 285 286 288 288 282 284 287 289 286 287 284 286 286 286 286 286 287 288 289 289 288 288 288 288 287 288 288 288 287 286 286 287 287 287 287 287 288 288 288 289 289 289 289 288 287 285 283 285 286 286 287 288 285 285 284 284 283 283 284 284 283 283 283 283 283 283 283 282 281 280 279 279 279 280 280 280 279
283 281 280 279 281 282 277 281 284 282 286 288 289 288 288 289 289 288 288 287 287 287 285 287 287 288 288 289 288 288 288 289 289 289 287 288 288 288 288 289 288 288 288 288 288 288 287 288 288 288 288 288 288 288 286 282 284 285 285 287 284 285 284 284 282 282 283 283 281 281 279 279 281 281 280 281 281 280 279 278 278 279 278 279 279 279
282 282 281 282 281 281 282 284 285 283 284 283 285 286 287 287 287 286 286 286 285 286 287 288 287 286 286 287 287 286 286 287 287 288 288 288 288 288 288 288 289 289 288 288 288 286 286 287 286 286 287 288 289 288 287 284 282 284 287 287 283 283 282 282 281 281 281 280 279 278 277 278 277 278 279 280 281 281 280 280 279 279 279 279 279 280
280 280 280 280 279 280 277 283 284 285 283 283 284 284 284 286 285 285 286 288 287 286 285 285 286 286 286 285 286 286 287 287 286 287 286 287 287 288 288 288 288 288 288 288 289 288 288 287 286 287 287 287 288 288 287 285 283 284 285 285 284 281 281 280 281 281 280 279 278 276 277 280 279 278 278 278 279 279 280 281 281 280 280 281 280 280
277 280 278 276 279 278 278 282 282 283 283 283 283 284 287 286 285 284 285 285 286 285 286 287 287 287 286 286 286 285 286 286 284 285 286 286 287 287 287 287 287 288 288 288 288 287 286 287 287 287 287 287 288 288 287 286 285 284 283 283 281 280 279 281 281 281 280 279 278 279 279 279 280 280 280 280 280 280 281 281 282 281 281 281 281 280
278 281 273 277 278 278 278 280 280 280 280 282 281 283 284 284 283 283 285 284 284 284 284 285 285 286 287 287 287 286 285 285 284 284 285 285 285 286 286 287 287 287 287 287 287 286 287 286 286 286 286 286 287 287 286 285 285 283 281 281 280 279 280 281 281 281 278 278 278 279 280 280 282 282 282 281 282 282 282 281 281 281 281 282 283 282
279 276 276 276 272 273 276 279 281 277 277 280 280 280 279 280 281 281 280 280 281 280 280 280 281 282 283 283 283 283 282 283 283 283 283 284 284 284 285 285 286 286 286 287 287 287 286 285 285 285 285 286 286 286 285 285 285 283 280 279 279 279 281 281 281 279 279 279 280 280 280 280 281 281 281 281 280 279 277 281 283 283 282 281 283 284
278 278 279 276 276 275 281 279 280 280 279 280 281 278 276 277 278 278 278 278 278 278 277 277 278 279 280 280 281 281 281 282 282 282 282 282 283 284 284 284 284 285 285 286 286 286 286 286 285 285 285 286 286 285 285 284 284 283 279 277 279 280 281 281 281 281 280 281 281 281 281 280 280 280 280 279 279 279 278 278 280 284 284 283 283 283
Wind_Speed
1 3 4 6 7 8 4 6 7 4 6 4 3 3 1 3 1 1 0 1 1 1 5 8 8 8 10 10 12 11 9 6 6 8 9 9 9 9 9 10 11 10 14 9 8 8 10 11 11 9 8 8 7 7 9 10 11 12 13 12 13 10 9 9 9 9 9 9 7 5 9 9 7 8 8 8 7 7 7 7 6 6 5 7 8 10
4 3 4 7 7 7 8 4 4 3 4 3 3 3 3 1 0 1 0 2 3 1 3 2 4 11 11 10 11 9 7 11 9 9 10 12 12 10 11 12 12 13 5 3 4 6 6 7 7 6 7 7 9 8 9 12 13 12 11 13 13 8 10 11 12 11 10 10 12 12 11 9 7 8 9 8 7 8 6 6 6 5 5 7 8 7
2 4 8 8 5 2 2 5 4 3 4 3 2 2 2 2 1 0 1 2 1 1 8 3 6 14 12 10 10 9 12 13 9 11 12 11 10 9 10 12 13 8 9 4 6 5 7 8 7 7 7 8 12 11 11 10 7 6 8 9 8 9 10 10 10 9 11 8 6 7 5 8 5 2 3 4 3 4 6 5 5 5 6 6 7 9
1 5 11 6 4 4 2 5 6 5 5 4 3 2 3 2 1 3 2 1 1 3 3 2 7 15 15 6 11 12 11 10 7 6 9 7 9 11 12 13 12 12 9 7 8 8 6 6 7 5 6 9 6 6 6 7 10 8 8 7 7 8 8 7 7 8 5 4 2 2 3 4 4 5 4 3 3 4 4 7 6 5 6 6 7 8
7 3 1 4 3 4 3 1 5 3 0 1 3 2 0 1 0 3 1 1 2 2 1 5 5 10 7 4 6 6 3 6 9 6 7 8 8 11 9 8 9 11 7 7 7 6 4 5 8 11 10 6 8 8 10 9 10 9 11 10 10 9 9 7 7 7 5 5 4 4 4 4 4 4 4 4 4 6 5 4 6 7 5 6 5 6
5 3 1 5 2 3 5 2 2 6 0 1 2 5 4 3 4 1 2 3 7 3 2 3 6 5 6 6 6 9 6 9 4 1 7 10 9 8 10 14 9 4 5 8 9 9 8 8 6 5 5 7 7 8 9 8 8 7 7 8 8 7 7 8 8 9 8 8 8 7 7 7 6 7 7 12 13 9 8 9 4 4 5 6 5 6
6 1 2 5 4 3 3 2 2 4 4 1 3 2 3 5 5 4 1 3 2 1 2 2 1 10 6 13 11 8 9 13 10 6 10 9 10 7 11 11 5 6 7 5 3 1 4 5 5 5 7 8 8 8 5 5 7 7 8 9 9 9 8 7 8 9 8 8 7 9 9 7 9 9 7 4 3 6 4 4 6 5 4 5 7 6
2 1 5 4 4 3 4 2 2 6 6 2 1 1 4 4 3 2 4 3 4 2 4 1 3 4 10 16 5 10 9 8 8 12 13 12 10 11 8 5 5 7 6 5 5 5 5 7 10 11 10 8 10 7 6 7 7 9 9 8 8 7 8 7 8 9 9 10 8 8 7 7 7 8 7 5 4 4 5 5 6 5 5 5 6 7
3 3 3 2 1 3 6 4 3 6 5 2 1 5 4 6 4 4 4 2 0 3 8 4 0 2 6 10 7 2 7 5 9 12 12 12 11 7 5 8 7 6 5 5 5 5 6 8 8 7 8 9 6 6 9 9 8 8 7 8 7 9 8 7 9 10 9 9 9 9 8 8 6 5 5 4 3 5 6 7 5 6 6 6 5 6
2 4 6 7 6 4 3 1 0 7 3 2 2 4 5 6 5 4 2 2 3 2 8 2 3 3 10 6 6 2 1 8 9 10 10 8 8 7 5 4 2 1 1 1 3 3 5 6 6 7 6 6 9 8 7 6 6 6 6 8 9 9 8 8 9 10 10 9 9 9 9 9 7 5 4 5 6 6 6 8 7 7 7 6 5 6
0 0 4 4 4 4 5 1 1 1 2 4 6 7 5 7 3 3 5 2 3 4 7 7 8 5 9 4 6 4 4 4 5 5 4 4 2 3 0 4 6 5 4 3 1 1 0 2 5 5 7 7 5 5 5 6 6 6 7 8 9 9 8 8 10 10 11 10 10 10 10 10 9 7 7 7 7 6 6 8 7 7 7 6 6 6
2 2 1 1 2 3 3 5 6 2 4 5 2 4 4 2 6 3 3 5 1 8 4 2 6 4 7 5 6 6 5 5 2 1 4 2 1 2 4 4 5 5 5 5 4 3 1 1 0 3 5 5 5 5 5 6 6 6 6 7 8 7 8 8 9 10 10 10 10 9 10 10 10 9 8 10 10 9 10 9 8 6 6 6 6 6
1 1 1 2 2 7 4 7 4 5 2 5 7 7 5 2 3 3 2 2 5 7 0 3 3 2 16 5 4 6 8 1 1 4 3 1 1 3 3 5 5 3 2 4 4 2 2 4 5 5 5 4 5 7 7 8 7 7 7 8 9 8 8 9 9 10 10 10 10 10 10 9 9 9 9 9 8 8 9 8 8 8 8 6 7 7
5 2 1 1 4 2 6 9 2 2 1 6 8 6 5 1 1 4 4 2 4 6 4 1 1 6 4 5 9 10 10 4 4 1 2 3 4 5 6 5 5 4 5 5 4 5 5 7 7 5 5 5 5 6 8 7 7 6 6 7 9 9 8 8 9 10 10 10 10 9 9 9 9 9 9 8 8 9 9 8 9 9 9 9 10 9
2 3 6 4 2 3 4 7 12 9 9 9 4 10 9 8 6 5 3 5 7 6 2 4 2 8 3 4 2 3 5 5 4 10 5 2 2 3 4 4 4 4 4 3 4 6 8 10 7 5 5 5 6 7 7 6 6 5 6 7 9 8 8 9 10 8 10 10 9 8 8 9 8 9 9 8 8 8 10 9 10 9 8 9 9 10
10 5 5 11 1 9 10 3 5 6 2 1 3 6 4 9 5 3 5 3 2 1 1 2 6 4 4 3 6 4 5 11 9 8 7 11 8 4 5 7 5 4 4 5 5 7 8 7 5 5 6 7 7 7 6 6 6 6 7 7 9 10 9 9 9 10 11 10 9 9 10 10 10 9 8 8 7 8 9 10 10 10 9 8 8 8
2 4 2 1 4 11 7 4 3 5 5 4 5 7 7 5 4 1 2 0 2 3 9 2 8 8 6 8 12 18 16 8 6 8 7 9 10 9 7 6 6 4 4 5 6 7 8 6 5 7 7 7 7 7 8 8 7 8 8 9 9 8 7 9 10 10 9 9 9 10 10 9 9 10 10 10 10 10 9 9 9 9 9 9 8 8
9 4 2 2 3 1 0 1 2 3 3 7 4 7 1 2 4 3 5 2 1 6 8 3 11 9 4 14 3 5 6 1 1 4 5 7 7 6 8 7 6 7 4 3 5 6 6 6 6 7 6 7 8 8 7 8 7 8 9 9 10 9 10 9 9 9 9 10 10 10 11 11 11 11 10 9 10 9 9 9 8 7 8 9 8 7
5 2 1 0 1 6 2 2 2 2 1 5 5 3 7 4 3 2 4 4 2 2 6 4 4 9 9 15 1 4 6 8 7 5 2 5 6 7 7 7 6 6 5 1 4 5 6 6 6 6 7 7 6 6 7 7 8 8 7 7 8 11 10 10 8 8 8 9 9 9 10 11 10 10 9 8 8 8 10 10 9 9 9 8 8 7
2 5 2 1 2 1 1 4 9 4 3 0 2 2 1 3 3 5 8 4 6 6 0 9 2 12 7 4 9 8 4 7 8 8 6 9 9 7 6 4 5 6 5 1 3 4 5 6 6 6 7 7 8 6 6 6 6 8 8 8 8 6 6 6 8 9 10 10 9 8 7 8 9 9 9 9 9 10 11 10 10 10 9 10 8 8
2 3 6 1 2 2 2 4 7 10 8 3 2 3 1 0 2 3 0 5 5 3 4 4 9 10 6 8 6 6 8 9 7 6 4 6 5 4 3 4 4 4 2 3 4 4 5 5 4 5 5 6 4 3 4 5 7 7 6 7 7 9 9 9 10 9 10 8 9 8 10 10 9 10 9 9 10 11 10 10 10 10 9 7 9 8
3 2 6 1 1 5 7 5 11 15 16 12 13 11 12 8 3 3 9 1 2 3 4 2 14 13 8 7 9 10 8 4 5 5 5 1 3 1 0 2 3 2 5 4 4 5 5 4 3 3 3 3 4 3 5 5 5 5 7 8 8 8 9 9 9 9 8 8 8 10 10 10 8 9 9 10 10 11 10 10 10 9 7 9 8 9
7 3 7 6 9 11 8 4 3 3 2 0 3 7 6 5 5 5 6 5 1 4 2 4 1 22 2 6 5 8 6 4 3 1 1 1 1 1 0 0 1 1 1 3 5 7 6 5 4 4 6 4 4 5 6 5 7 8 7 7 7 9 11 9 10 8 8 9 9 10 9 8 8 8 8 9 10 11 11 10 10 9 10 9 8 8
4 3 2 3 1 2 2 2 5 1 2 3 3 2 4 5 6 8 7 6 7 2 4 3 5 17 3 4 1 2 6 2 2 1 2 2 1 1 4 5 5 2 3 4 4 6 7 6 5 4 6 4 4 5 8 8 7 8 8 8 7 11 10 8 8 7 8 8 9 8 8 9 8 8 9 11 10 10 9 9 9 9 10 9 8 10
5 4 7 2 1 2 3 4 2 3 1 1 2 3 5 5 4 3 2 1 2 7 10 8 13 17 1 1 4 2 1 2 1 2 4 6 5 5 4 4 4 4 4 4 5 7 6 6 6 8 8 6 5 5 6 7 8 8 9 7 9 9 7 8 7 7 7 7 8 7 9 9 9 11 11 12 10 10 8 8 8 8 10 9 10 9
5 5 8 7 10 9 5 7 6 4 8 4 3 5 6 10 9 4 7 4 8 8 9 6 11 18 8 5 6 5 5 7 6 4 4 1 2 6 5 5 5 5 5 6 6 6 6 9 9 8 7 6 6 6 6 7 8 8 7 9 7 9 8 8 6 7 7 8 9 10 10 11 10 13 13 12 11 11 9 8 8 9 9 10 11 10
3 1 7 10 12 12 9 5 6 5 3 5 6 9 6 8 12 11 4 7 15 15 9 10 16 20 20 9 2 2 4 5 3 7 7 8 7 5 3 4 5 5 5 7 8 8 6 6 9 9 8 8 6 6 7 7 7 7 8 10 10 10 9 8 8 8 8 8 9 10 13 13 14 13 12 12 11 9 9 9 8 9 11 9 10 11
2 3 6 6 8 6 5 3 4 11 11 12 12 10 11 11 11 14 13 18 16 5 13 15 14 12 25 20 5 6 8 6 4 4 6 4 4 4 7 9 8 6 7 7 7 9 10 10 8 8 9 8 8 7 6 7 8 9 10 12 10 8 8 9 9 9 10 9 11 13 15 14 12 11 11 10 9 9 9 9 9 9 8 8 11 12
4 5 2 3 4 3 0 1 1 1 3 3 6 6 7 9 8 15 20 21 10 12 19 14 7 15 22 18 2 6 8 7 2 4 6 5 4 5 7 7 8 8 9 10 10 9 9 10 10 9 8 9 7 7 9 8 8 8 9 9 9 7 10 9 8 9 11 10 12 15 15 10 9 9 8 9 9 10 10 10 9 9 9 9 10 10
3 3 1 2 3 4 3 3 1 1 1 1 2 4 7 9 14 17 17 15 11 8 10 13 6 11 13 14 1 4 7 7 7 6 6 6 10 6 4 6 7 8 9 10 10 10 9 10 10 11 10 8 7 8 7 8 8 9 10 11 9 9 10 7 10 10 11 12 14 15 11 9 8 9 8 9 11 11 10 10 10 10 10 11 10 10
2 3 3 2 2 7 7 2 2 4 4 3 7 7 8 10 11 13 11 11 10 12 16 17 16 18 17 7 7 10 7 6 6 5 9 12 9 7 6 6 7 8 10 10 9 10 10 11 11 10 9 9 9 9 9 8 8 7 8 9 10 10 10 7 9 10 10 13 14 12 7 8 9 8 10 11 9 9 10 11 10 10 11 11 11 11
1 2 3 2 2 8 8 5 6 5 4 5 8 12 16 16 13 7 8 8 8 14 13 9 12 17 14 1 9 15 3 3 11 14 12 10 10 7 6 8 9 10 10 10 9 8 8 10 10 11 11 11 10 9 7 7 7 5 8 10 10 11 6 6 9 11 12 14 12 9 10 10 8 9 11 9 11 11 10 10 10 12 12 11 11 11
5 4 4 4 6 9 7 3 6 3 2 7 14 22 21 10 11 12 11 11 15 12 10 11 16 13 13 6 4 11 11 7 9 14 15 12 8 5 5 6 8 8 10 11 10 7 8 9 8 9 10 9 10 9 9 7 6 8 10 9 12 6 6 10 11 12 12 12 12 12 11 10 10 11 10 11 11 9 9 11 11 12 12 13 11 8
6 8 6 5 6 4 5 5 5 6 11 13 11 8 9 16 16 15 15 16 12 8 9 11 12 12 11 12 13 14 15 13 12 13 12 8 4 5 6 7 8 8 9 10 9 9 9 8 7 7 7 8 9 9 10 6 7 9 7 7 5 5 8 8 9 10 12 11 12 12 11 9 9 11 12 10 9 10 11 11 14 13 11 10 9 12
7 7 5 4 4 5 3 6 3 13 12 4 2 8 13 15 14 17 17 16 14 14 13 13 13 15 18 16 15 14 13 12 10 11 10 6 3 2 5 7 8 7 8 7 8 8 8 8 8 8 9 8 8 8 7 8 5 6 7 5 5 6 7 7 8 9 10 12 12 9 8 10 11 13 11 10 10 10 12 13 12 11 11 11 12 12
8 9 4 3 3 1 4 5 10 7 1 3 7 7 2 1 3 4 7 10 13 15 16 16 18 19 19 18 16 14 13 13 7 2 5 5 6 6 5 4 6 6 7 6 6 8 9 10 9 8 9 8 8 8 6 7 7 6 7 3 5 6 6 6 7 9 9 11 10 10 10 10 11 11 9 9 9 11 12 12 12 12 9 9 8 8
8 3 1 3 5 6 3 9 11 5 10 10 9 6 5 5 6 9 9 10 13 13 13 14 15 16 16 15 15 12 9 6 9 3 5 5 5 5 5 4 2 7 6 6 5 7 8 7 7 8 6 8 8 9 9 8 7 7 7 6 6 5 5 5 7 10 11 11 9 10 10 9 10 10 9 9 10 12 12 11 11 9 7 9 9 10
10 10 6 6 4 7 8 6 2 2 9 13 14 6 4 7 7 6 7 6 1 9 5 8 14 13 10 6 6 6 2 5 10 6 4 11 7 4 6 5 4 4 6 7 7 6 6 7 7 7 5 7 9 8 6 6 7 8 8 8 6 5 5 5 10 11 8 9 10 10 8 9 10 11 10 10 12 12 11 10 8 9 9 12 11 11
11 11 8 11 4 4 7 7 9 9 10 8 8 5 5 5 7 5 5 8 1 4 5 5 7 6 4 4 7 4 0 5 9 4 2 7 10 7 5 6 6 6 6 6 6 8 9 9 7 7 8 7 9 9 7 8 7 7 8 8 7 5 6 9 11 9 9 11 8 7 7 8 9 10 10 11 12 11 12 11 12 9 8 9 8 10
13 10 6 9 11 11 8 8 9 4 8 7 5 1 2 3 6 7 7 3 1 3 2 3 4 4 2 3 2 6 3 1 6 8 5 6 7 9 5 7 7 8 9 9 9 6 6 6 6 10 10 10 11 7 6 6 7 7 8 9 5 6 9 11 10 7 7 8 7 7 7 8 10 10 11 12 10 10 11 8 7 8 9 9 8 8
9 7 11 16 13 13 15 11 6 7 5 7 8 3 3 4 3 6 9 3 1 1 1 2 2 2 2 5 4 4 1 3 7 8 7 6 6 9 6 4 4 5 7 9 10 9 8 8 6 7 8 8 9 7 6 5 6 9 8 7 7 11 11 8 6 7 8 7 7 7 8 8 9 11 10 9 9 8 6 7 8 8 9 9 7 6
6 5 2 8 12 13 12 13 12 7 4 2 5 2 4 3 8 10 2 3 4 1 1 2 2 1 2 2 1 2 5 5 7 7 7 5 5 7 8 8 8 7 6 6 9 7 8 8 7 8 9 8 6 5 5 5 8 9 8 7 11 12 7 6 7 7 6 7 8 8 8 8 8 8 9 7 6 7 7 6 7 8 8 7 7 8
9 7 5 9 6 7 6 10 8 9 1 3 3 2 2 4 2 3 2 1 3 2 3 1 3 1 1 3 4 5 7 8 7 9 8 7 5 5 6 7 8 8 9 10 11 9 7 9 11 11 12 11 9 6 5 5 8 10 8 10 14 8 6 7 7 7 7 7 7 7 8 7 7 8 6 6 7 8 8 6 7 6 7 8 7 8
4 3 3 5 6 6 8 9 5 2 2 4 1 4 0 3 5 6 5 1 1 4 5 1 2 4 4 2 4 6 7 8 9 6 8 9 7 6 5 5 6 6 7 6 6 9 9 10 10 11 10 11 10 8 6 5 8 10 9 14 9 5 6 6 6 6 6 7 6 6 6 6 6 6 5 6 6 6 7 7 6 7 7 8 9 8
6 8 3 4 3 6 4 3 2 3 5 0 2 2 4 3 3 8 6 5 3 3 4 2 3 4 5 4 5 5 6 6 8 10 7 10 10 10 11 12 10 10 10 9 10 9 8 10 12 12 13 13 10 9 7 5 7 11 13 12 5 6 6 7 6 5 6 6 6 5 5 4 4 5 5 5 7 7 7 6 7 8 6 7 7 8
2 2 1 3 5 1 1 2 3 2 1 1 1 1 2 4 3 4 4 1 2 3 4 3 3 3 4 5 3 4 4 6 7 10 11 11 11 10 9 10 12 10 9 8 8 6 6 9 10 11 13 15 12 9 8 6 5 10 14 9 5 6 6 6 6 6 7 6 5 4 4 4 4 4 4 5 6 7 7 9 9 8 7 7 7 7
1 0 2 3 2 3 6 2 6 5 1 1 2 2 1 1 3 4 1 1 2 3 3 3 3 4 3 1 3 5 7 7 7 8 8 9 12 13 13 11 11 10 10 12 12 11 10 7 8 10 11 14 15 10 8 8 7 9 11 11 8 6 6 6 6 7 5 5 5 4 4 5 5 4 4 4 4 5 6 6 7 8 8 8 8 8
3 2 2 2 2 4 6 4 3 1 2 4 3 1 5 4 1 1 2 4 4 5 4 5 5 5 5 5 4 3 6 6 5 8 9 9 11 12 13 14 15 15 13 9 9 9 10 11 11 12 12 13 14 11 11 10 10 9 9 10 8 6 6 6 7 7 7 6 5 5 5 5 7 7 7 7 8 8 7 7 8 9 10 11 10 10
2 3 3 3 4 4 4 7 3 1 0 1 1 2 2 2 0 4 7 8 7 7 8 7 6 5 6 7 7 7 7 8 5 6 9 11 11 12 13 15 15 15 15 15 11 6 8 11 14 14 14 15 13 10 10 12 11 9 9 9 7 6 6 8 6 7 5 5 5 6 5 6 6 6 7 6 6 6 8 10 9 8 7 7 8 10
2 4 3 1 2 2 6 4 1 1 5 5 4 4 6 4 4 5 5 8 8 8 8 8 7 5 5 5 5 5 5 7 7 6 9 10 11 11 12 14 14 15 16 14 12 11 10 8 8 11 14 14 12 10 11 12 12 9 7 7 6 6 8 8 7 6 7 6 6 6 6 6 6 5 6 6 7 6 3 2 6 5 8 8 7 9
5 5 4 6 5 5 1 2 1 2 3 6 2 5 5 4 5 8 6 5 4 4 4 6 8 8 7 7 6 5 6 6 8 7 9 10 12 11 11 12 14 15 16 16 17 17 15 13 11 10 13 14 13 12 12 12 13 11 7 6 6 7 9 7 7 7 7 7 7 8 7 6 6 6 4 4 5 6 7 5 3 3 3 3 8 10
Wind_Direction
100 102 166 185 206 207 220 176 183 194 150 118 91 113 160 157 305 307 315 279 345 9 240 237 259 261 270 264 268 270 276 256 244 242 238 242 243 242 244 242 239 234 232 231 216 205 206 206 202 195 182 185 185 185 187 188 190 187 186 179 191 189 173 167 171 178 177 183 188 194 197 198 185 186 183 187 190 189 186 176 171 182 185 177 176 175
67 80 238 217 198 190 213 185 134 63 61 124 111 58 335 96 194 270 220 321 332 118 290 295 288 271 260 262 261 268 287 267 231 228 234 233 233 235 237 244 244 241 264 260 235 231 219 213 203 186 180 168 173 199 186 192 197 194 185 188 192 177 184 186 185 185 187 191 194 190 196 186 175 174 179 189 191 192 184 178 173 174 188 181 171 166
49 171 242 226 211 149 104 116 108 121 97 49 123 138 54 311 193 290 333 332 285 82 263 339 326 284 273 263 260 248 248 253 230 215 228 224 235 239 241 245 252 257 251 259 250 232 213 204 192 184 188 191 193 185 188 191 184 191 193 200 189 188 188 195 188 180 194 195 192 188 181 174 159 173 161 151 166 164 174 177 174 175 179 193 180 170
77 291 244 243 166 101 43 84 90 64 66 103 69 67 199 240 95 290 289 339 254 169 270 10 323 288 285 257 251 246 237 255 260 239 247 225 231 236 238 234 240 248 251 237 229 227 214 192 185 180 191 197 183 175 184 182 187 188 190 193 193 195 196 192 192 192 186 162 133 101 126 139 132 168 144 116 124 155 164 188 181 189 182 195 189 177
188 232 263 150 139 131 138 61 89 78 127 339 126 129 170 286 330 163 249 303 310 335 42 337 293 289 298 346 328 298 277 256 272 268 274 259 236 239 252 267 242 243 237 238 242 246 196 174 190 194 195 175 186 190 191 187 187 192 192 191 188 190 192 188 178 179 156 134 118 85 61 76 76 66 133 136 184 189 187 173 187 201 186 184 185 180
273 270 82 130 80 83 101 76 146 125 80 332 245 177 192 146 122 11 4 37 15 342 324 51 347 293 294 295 256 281 327 313 285 296 260 253 247 247 251 247 255 252 218 213 219 213 197 194 193 190 180 189 199 199 201 194 192 184 186 183 187 187 186 183 179 174 166 174 168 155 155 165 177 187 181 198 199 187 190 196 156 152 189 183 177 181
198 353 125 167 137 94 87 134 225 115 163 79 266 163 168 134 123 97 20 59 336 240 288 73 118 280 309 291 282 287 286 274 287 274 260 256 253 242 236 243 252 239 255 255 270 218 179 211 190 201 197 199 199 209 190 190 194 192 187 188 187 186 184 176 177 173 170 176 181 184 188 188 193 197 221 220 190 186 186 137 174 176 183 189 177 183
79 64 74 68 89 100 103 117 242 139 113 219 244 170 110 100 102 131 100 111 229 243 302 18 138 223 303 287 274 257 258 277 291 277 266 257 250 241 245 266 239 235 237 231 229 206 207 197 192 198 201 197 204 194 184 196 196 194 192 183 185 181 180 178 173 177 178 180 181 185 190 188 196 202 206 194 184 161 153 168 176 171 190 192 188 179
154 167 139 128 90 107 171 204 196 130 128 213 217 153 132 132 150 114 94 134 235 29 285 327 353 305 233 274 291 299 288 271 258 260 263 258 256 257 242 235 233 228 223 204 224 213 200 201 208 203 198 208 196 189 194 195 197 193 187 182 178 184 181 174 173 174 183 181 180 186 186 196 205 189 185 170 154 161 168 178 176 181 188 194 193 185
352 164 205 151 137 191 233 293 221 154 106 258 160 85 73 70 64 101 98 74 335 49 267 206 178 236 273 240 279 321 285 281 259 256 259 266 273 272 254 250 236 192 154 221 227 229 209 208 203 203 197 187 202 199 197 197 188 190 181 183 181 187 181 176 174 176 179 179 176 186 194 197 193 173 162 164 171 173 174 187 185 187 188 191 189 188
254 346 165 102 184 190 143 45 97 95 133 122 71 67 26 33 34 21 67 88 42 273 254 204 203 168 289 253 210 188 225 211 272 306 286 310 334 351 78 161 152 147 149 125 81 12 318 277 216 176 187 204 200 200 192 194 195 189 185 184 186 188 179 179 178 177 182 183 184 191 192 195 189 182 170 173 184 175 181 192 190 192 193 188 190 186
7 355 107 299 57 109 92 73 4 62 102 110 95 116 50 341 13 27 344 38 152 264 267 274 213 155 225 291 281 233 264 234 178 349 312 341 2 109 147 184 188 184 173 174 155 180 233 65 137 177 196 197 200 186 197 201 194 191 190 182 187 187 185 184 180 181 185 185 192 195 192 195 193 184 185 188 188 187 189 192 192 189 187 195 189 189
325 241 255 23 265 127 92 83 348 12 5 79 88 67 124 248 33 300 21 254 211 225 251 325 195 28 247 217 261 279 284 250 110 13 64 188 198 211 217 219 217 214 188 182 201 202 228 213 211 205 203 188 194 197 197 199 195 192 186 185 186 195 188 188 180 185 186 189 194 194 195 198 195 198 194 194 196 188 192 189 188 184 196 187 191 197
267 293 32 238 7 236 138 130 182 74 238 113 141 143 118 154 135 240 263 237 297 292 266 334 21 249 280 304 240 250 263 270 303 193 214 182 199 220 232 237 233 222 197 203 198 211 218 225 228 220 196 200 204 207 203 199 195 192 189 189 193 197 187 186 187 188 187 196 195 194 194 195 195 206 203 202 200 192 194 188 190 192 193 193 199 191
157 309 266 132 262 183 185 176 175 174 171 203 122 157 177 150 166 211 187 207 221 220 286 281 90 234 103 245 271 239 245 273 297 317 281 214 205 260 265 263 247 231 229 212 210 210 222 231 225 219 210 209 214 212 209 202 197 188 194 189 197 195 196 189 192 188 194 197 198 196 196 196 196 203 205 209 205 193 193 192 190 194 194 197 198 196
209 212 251 194 231 162 184 214 136 91 89 250 166 84 105 220 128 175 203 157 238 320 326 224 216 186 172 271 273 252 294 283 287 305 309 300 292 276 254 247 237 238 230 214 214 235 244 243 233 222 220 219 214 213 209 204 195 194 199 198 203 201 195 193 191 197 195 199 197 197 200 203 201 203 204 205 199 198 192 193 193 193 197 203 198 199
89 248 309 163 38 177 189 120 189 150 195 230 118 209 206 181 122 90 5 304 97 35 256 157 300 270 296 267 235 247 253 277 309 266 269 269 267 263 256 272 276 169 206 205 215 226 241 246 234 223 218 218 216 211 209 204 197 197 197 201 206 207 200 198 199 196 197 197 196 206 207 205 207 206 206 205 202 195 192 194 196 193 198 200 201 195
152 232 328 107 218 308 148 110 106 17 149 100 191 236 210 86 119 147 215 342 112 209 266 121 241 287 60 286 354 39 74 179 275 272 238 249 255 268 267 276 286 319 290 225 225 232 240 243 237 228 226 220 214 208 205 207 202 204 204 202 203 204 206 206 197 198 195 196 202 205 208 210 208 208 209 206 202 192 188 193 194 195 193 199 198 192
128 253 285 5 188 281 341 136 338 343 40 148 191 203 124 253 264 300 95 245 232 277 274 274 254 266 208 248 78 319 325 319 309 291 328 280 272 254 264 279 310 297 301 276 230 244 251 247 244 228 223 224 222 215 208 206 203 207 209 209 206 209 209 203 197 198 202 201 203 205 208 211 213 212 209 206 197 190 194 192 191 193 196 192 190 182
74 174 279 346 125 307 13 116 203 192 326 47 65 124 172 103 163 142 200 173 123 242 71 280 129 262 193 224 136 228 248 261 266 279 256 233 236 236 240 272 283 288 287 286 278 259 251 253 243 232 223 212 205 207 213 212 213 214 211 207 214 219 212 206 202 197 204 205 205 205 203 214 217 216 212 202 196 197 198 194 191 191 190 194 184 188
231 162 231 272 305 71 193 191 205 158 168 207 140 223 211 9 223 114 258 146 169 186 190 269 294 255 252 165 164 196 226 235 234 240 268 257 271 284 254 238 251 256 270 258 244 255 261 256 256 253 247 226 178 197 207 212 218 222 215 215 210 210 211 210 209 202 209 200 211 204 203 204 207 216 214 210 204 203 200 194 192 193 191 178 191 176
181 171 188 176 66 231 243 221 185 182 185 180 179 197 184 137 145 162 260 35 118 159 236 149 262 279 259 174 164 195 217 213 211 146 83 87 136 206 294 263 229 227 246 265 287 279 282 277 272 280 274 233 132 191 214 226 224 228 223 218 213 215 216 212 213 210 207 204 205 207 207 206 206 209 211 214 211 208 201 194 193 188 180 192 187 179
168 150 111 187 202 201 216 255 274 239 318 265 173 222 177 179 136 137 209 261 6 246 164 171 262 269 201 157 145 160 180 183 178 147 95 56 39 101 304 238 266 244 264 268 277 289 286 280 245 228 229 202 182 202 213 227 222 221 221 220 220 214 222 211 216 209 205 204 204 208 205 203 207 206 211 215 219 217 208 199 190 182 185 188 182 188
96 98 117 290 309 325 353 323 17 28 197 274 253 116 112 199 186 178 182 191 167 231 227 250 223 265 0 54 328 295 276 234 182 129 154 180 246 294 5 357 350 309 264 265 270 275 276 286 298 277 245 227 219 219 221 220 224 225 221 216 214 224 222 218 218 210 211 211 211 203 200 205 204 207 211 215 218 222 217 205 194 181 188 184 177 186
170 259 143 138 23 341 351 348 5 336 45 172 211 206 181 188 175 185 116 132 205 212 207 145 236 255 127 359 60 10 238 134 98 17 59 45 357 352 330 299 274 257 264 269 259 257 281 295 272 250 247 243 234 232 230 226 227 227 228 212 218 227 218 222 214 209 214 211 212 209 208 210 204 209 212 216 214 221 217 212 198 188 189 181 185 189
170 177 145 170 195 204 216 191 210 224 212 224 211 210 190 171 182 126 236 208 227 237 202 196 244 256 247 49 38 47 36 18 4 334 321 1 314 303 308 299 294 296 286 284 284 294 265 246 248 260 257 253 245 233 234 234 234 236 234 227 219 223 216 218 206 212 204 206 208 214 214 214 208 213 213 212 214 213 211 211 206 196 196 188 187 186
171 194 183 187 192 216 213 198 232 140 93 173 230 186 200 201 187 194 152 195 219 229 224 225 233 256 265 243 177 301 337 320 318 315 304 307 312 313 275 278 282 291 279 267 264 266 272 272 255 251 257 248 248 238 234 233 234 233 235 239 226 217 211 208 198 206 209 210 212 216 220 214 214 211 210 208 208 204 204 206 207 203 202 194 191 189
86 188 225 208 221 226 174 169 198 165 183 203 201 206 199 189 188 189 193 222 218 216 248 231 230 249 260 257 220 276 286 285 271 249 278 289 287 284 296 298 310 305 286 277 277 274 272 272 273 263 260 260 254 249 245 236 230 227 225 233 232 225 214 209 198 201 208 207 214 221 224 220 216 212 212 205 200 202 202 201 203 207 207 196 200 199
141 194 268 146 258 193 179 201 43 73 186 198 212 205 198 210 197 199 217 227 205 202 232 241 180 227 254 267 148 207 250 255 218 255 249 237 246 274 291 302 295 288 285 282 274 273 274 278 277 272 259 252 254 252 245 241 238 235 239 240 239 219 223 211 194 205 210 210 218 225 225 217 213 213 209 202 200 201 202 200 199 200 202 205 209 205
112 241 194 87 269 286 233 212 98 141 311 290 204 203 214 208 217 216 230 237 229 239 251 265 237 236 257 272 222 218 256 275 267 267 294 293 275 272 258 257 267 267 265 267 272 277 277 274 273 272 279 282 262 251 250 245 239 232 230 237 235 227 230 195 207 208 213 214 223 231 226 213 209 205 200 201 206 204 198 196 197 198 203 207 209 206
127 272 92 60 309 267 269 237 213 212 164 220 266 266 238 226 228 232 239 248 254 260 258 261 271 272 259 272 301 258 244 278 294 276 263 274 286 284 280 266 253 258 265 268 270 273 275 280 282 285 284 275 274 267 259 253 248 239 236 239 236 231 227 195 211 216 218 223 228 232 219 213 214 199 203 209 204 200 197 197 194 199 204 206 203 204
73 257 51 80 225 273 260 232 243 250 253 240 241 236 240 237 238 228 224 222 224 236 246 263 265 258 271 177 255 275 265 248 278 279 277 274 275 283 279 279 280 275 274 271 267 268 275 275 278 284 284 284 285 284 275 262 255 245 244 239 236 235 207 192 213 217 221 227 230 224 215 216 207 203 212 203 207 202 197 192 194 201 204 202 201 203
167 154 156 147 218 233 260 158 208 176 138 251 243 239 232 230 228 237 238 223 224 222 234 235 241 255 268 263 260 278 278 255 264 276 278 275 275 280 272 271 271 270 276 285 288 284 274 275 278 280 287 295 295 295 284 262 257 243 241 238 239 221 192 210 212 218 224 227 226 224 220 211 204 209 208 209 207 198 191 196 200 202 201 204 200 188
157 164 186 163 214 233 236 136 130 143 216 231 232 224 207 224 221 223 233 232 231 195 223 229 249 261 267 270 256 259 266 264 261 265 262 280 353 351 301 275 275 285 294 300 305 299 300 300 296 290 281 277 280 277 277 275 254 261 259 255 253 205 223 216 225 220 228 228 228 225 219 210 209 214 214 208 201 195 198 198 205 205 201 197 191 198
172 174 191 182 161 214 130 119 190 225 232 246 123 162 201 217 217 220 230 234 234 235 239 246 251 252 253 252 256 258 260 266 262 268 299 2 43 319 292 308 319 324 316 319 322 319 315 315 317 317 315 310 302 299 316 310 290 287 294 269 248 232 228 225 227 228 230 232 232 227 218 212 213 218 216 207 200 198 204 204 207 201 199 196 198 197
181 184 163 216 173 149 157 173 232 225 216 302 278 232 238 226 228 225 264 256 242 233 230 236 239 247 252 258 264 268 270 277 293 7 45 39 53 37 24 343 329 331 334 326 323 320 327 325 320 317 312 310 319 311 314 301 310 313 290 285 241 246 233 231 230 236 236 238 234 225 221 216 220 222 217 207 202 205 210 209 205 203 195 195 201 204
171 176 167 209 181 212 192 214 235 356 315 278 270 244 154 184 167 175 228 241 236 230 227 235 244 251 257 257 257 267 287 318 305 307 20 23 32 24 342 318 310 319 316 316 319 313 309 304 311 311 311 314 314 320 319 317 316 308 301 296 264 250 251 231 240 240 236 238 236 229 223 217 220 223 218 208 206 210 211 208 207 202 182 193 198 198
176 188 181 207 233 195 223 248 266 196 237 248 239 268 151 187 181 177 185 258 62 7 326 256 248 255 274 304 338 309 7 319 290 264 6 354 352 13 324 308 317 317 321 317 321 313 314 313 314 313 320 313 312 308 307 312 314 313 306 294 286 272 262 243 247 247 245 245 238 231 221 215 214 219 215 207 211 211 211 207 203 197 185 195 194 202
198 196 174 197 215 160 220 225 229 236 239 246 263 215 248 185 185 138 163 241 53 317 351 53 57 51 66 19 328 346 157 256 254 262 31 356 327 331 323 308 314 315 311 310 309 314 317 315 309 301 316 323 322 320 323 315 318 315 299 291 290 282 269 256 254 253 245 247 245 237 223 217 216 218 213 212 213 206 204 200 199 191 182 198 196 203
188 198 178 214 216 223 228 233 237 215 260 236 248 171 235 200 130 120 217 226 97 303 302 61 73 64 5 350 322 36 81 282 292 300 331 333 307 298 295 301 320 324 322 320 317 302 287 286 322 331 334 329 314 314 312 311 314 306 294 290 290 280 264 260 261 265 259 259 247 231 223 216 216 219 215 218 213 207 206 191 178 179 184 195 193 192
194 198 198 206 216 222 222 242 253 268 254 258 259 210 219 138 118 187 219 152 190 251 300 112 72 46 29 11 36 27 278 264 259 276 305 305 313 307 302 281 271 281 298 308 303 310 313 314 316 301 294 292 296 306 307 308 307 295 291 287 289 272 267 271 277 266 261 253 243 232 224 220 215 217 219 215 211 202 195 184 184 177 185 187 182 174
202 202 209 201 217 221 223 228 234 260 237 224 300 203 204 126 220 231 154 158 171 188 235 140 116 331 65 4 289 265 266 257 263 274 280 274 257 272 282 298 310 310 289 280 290 301 307 310 306 302 303 299 295 294 301 305 299 287 289 289 276 271 282 286 273 267 260 248 239 234 226 221 222 218 217 204 185 184 193 190 179 181 179 175 171 175
186 177 194 197 203 228 208 236 229 230 315 65 285 13 22 165 231 127 155 252 179 204 167 211 168 227 147 330 283 264 286 301 301 300 300 298 293 291 301 305 307 306 311 318 319 312 312 313 317 319 311 308 311 310 299 300 289 290 289 280 274 287 289 279 271 259 249 243 241 236 229 223 214 210 197 195 190 186 186 172 169 169 165 165 167 171
208 131 215 207 186 196 209 221 202 166 102 297 67 177 228 186 160 156 139 56 244 169 174 215 266 217 199 207 265 286 279 290 300 299 311 311 313 308 284 270 273 284 290 283 274 291 312 312 306 305 302 302 305 307 297 278 284 285 284 276 285 294 284 276 263 251 245 244 241 238 233 221 214 204 191 187 176 177 167 168 167 165 171 170 170 172
206 191 207 198 233 169 209 209 193 164 152 92 98 153 172 213 165 171 139 159 156 277 183 164 210 239 226 222 240 253 288 290 297 307 314 305 314 320 324 321 318 312 311 309 308 307 309 299 298 301 301 299 299 300 298 268 266 282 282 280 306 289 288 279 264 247 244 243 238 229 228 208 202 191 182 176 167 166 168 165 162 167 176 168 174 174
0 123 51 101 258 235 286 169 134 109 98 332 297 205 187 186 206 139 139 43 240 220 197 214 234 211 215 213 232 273 249 279 300 308 313 313 311 309 309 313 316 314 309 306 303 294 275 282 288 292 293 298 298 301 299 279 242 268 274 286 291 279 276 263 255 247 243 242 229 222 194 191 196 182 177 170 174 175 172 169 171 170 171 173 178 177
271 102 68 166 273 178 255 129 142 172 184 256 286 286 283 145 149 165 229 251 265 253 250 258 273 299 297 184 216 269 294 300 305 298 298 303 310 313 316 313 308 307 310 312 308 314 312 301 295 293 295 297 299 305 299 295 275 258 277 286 280 273 258 248 237 242 239 227 220 208 196 192 185 173 166 165 155 159 165 170 171 170 174 179 178 179
289 183 71 214 220 160 231 167 203 235 225 248 203 209 76 78 54 317 321 323 341 15 19 346 344 340 334 343 328 319 294 301 305 302 305 308 308 311 313 313 313 313 309 301 304 311 307 305 304 302 300 295 296 306 303 297 291 282 277 276 276 263 247 241 232 230 229 215 202 200 196 197 185 179 178 179 169 165 173 180 178 179 184 183 183 179
195 86 216 170 173 281 319 301 280 147 329 306 71 158 97 29 348 40 41 43 38 31 11 5 8 346 345 330 339 340 331 320 318 307 305 306 309 310 311 310 309 306 307 312 311 309 300 306 306 302 300 294 296 298 294 291 289 284 273 268 263 243 236 242 235 230 222 208 195 202 195 195 193 194 185 180 180 187 183 177 183 190 195 203 189 184
122 216 218 93 22 273 219 231 106 27 284 290 311 21 54 27 71 69 46 43 33 30 14 3 348 349 344 344 352 342 327 310 312 314 305 301 298 301 303 304 306 307 306 305 305 304 299 285 280 288 293 293 295 296 292 291 288 279 263 259 249 231 235 240 235 227 222 203 201 197 190 192 194 194 190 181 173 164 184 244 199 193 183 191 197 202
170 209 162 190 181 236 118 206 181 147 219 251 282 70 66 38 59 56 54 60 51 40 5 358 345 342 341 330 331 327 310 301 300 304 301 299 297 297 296 299 304 306 306 310 313 312 310 308 304 301 297 297 303 302 298 294 291 290 278 249 238 225 234 231 231 231 223 205 205 195 189 186 183 185 184 186 174 169 163 148 156 171 154 169 185 186